User: anonymous   Login
Location: Arbon
(43.0005°N, 0.7472°E)
Time: 07:04:08
(UTC+00:00)
Language:

Cosmos 1943 - Orbit

View from above orbital plane
View from above orbital plane
View from above satellite
View from above satellite

Ground track
Ground track

The orbit data is extracted from the following two-line orbital elements,

1 19119U 88039A   20299.79494243 +.00000256 +00000-0 +15607-3 0  9998
2 19119 071.0047 045.7167 0012052 341.5781 142.5889 14.15158598675351
Epoch (UTC): 25 October 2020 19:04:43
Eccentricity: 0.0012052
inclination: 71.0047°
perigee height: 833 km
apogee height: 850 km
right ascension of ascending node: 45.7167°
argument of perigee: 341.5781°
revolutions per day: 14.15158598
mean anomaly at epoch: 142.5889°
orbit number at epoch: 67535

The dashed part of the orbit path shows where the satellite is in the earth's shadow,  

DLR